When you browse on this site, cookies collect data to enhance your experience and personalize the content and advertising you see.
Visit our Privacy Policy to learn more. By continuing to use the site, you agree to this use of cookies and data.
  • In Portugal
  • List of Countries
  • For 7 days
  • Water Temperature
  • Satellite Maps
  • Weather Map
  • Weather Widgets
  • user-avatar
    Login

    Hourly Weather Pamporovo

    Today, 19 April, Friday

    Time Temperature Precipitation Wind Pressure Humidity
    00:00 -2°C° 0.1 mm 2 mps 628 mmHg 96%
    01:00 -2°C° 0.1 mm 2 mps 628 mmHg 96%
    02:00 -2°C° 0 mm 2 mps 627 mmHg 96%
    03:00 -3°C° 0 mm 2 mps 627 mmHg 96%
    04:00 -4°C° 0 mm 2 mps 626 mmHg 96%
    05:00 -5°C° 0 mm 2 mps 626 mmHg 96%
    06:00 -3°C° 0 mm 2 mps 627 mmHg 88%
    07:00 -1°C° 0 mm 2 mps 627 mmHg 81%
    08:00 0°C° 0 mm 3 mps 628 mmHg 75%
    09:00 +2°C° 0 mm 3 mps 628 mmHg 67%
    10:00 +3°C° 0 mm 3 mps 629 mmHg 59%
    11:00 +6°C° 0 mm 2 mps 630 mmHg 51%
    12:00 +7°C° 0 mm 2 mps 629 mmHg 49%
    13:00 +7°C° 0 mm 2 mps 629 mmHg 47%
    14:00 +8°C° 0 mm 2 mps 629 mmHg 44%
    15:00 +8°C° 0.1 mm 2 mps 629 mmHg 46%
    16:00 +7°C° 0.1 mm 3 mps 628 mmHg 48%
    17:00 +7°C° 0.1 mm 3 mps 627 mmHg 50%
    18:00 +4°C° 0.1 mm 2 mps 627 mmHg 59%
    19:00 +2°C° 0.1 mm 2 mps 626 mmHg 68%
    20:00 +1°C° 0.1 mm 1 mps 625 mmHg 77%
    21:00 +1°C° 0.5 mm 1 mps 626 mmHg 82%
    22:00 +1°C° 0.5 mm 1 mps 626 mmHg 86%
    23:00 +1°C° 0.5 mm 1 mps 626 mmHg 91%

    Tomorrow, 20 April, Saturday

    Time Temperature Precipitation Wind Pressure Humidity
    00:00 +1°C° 0.2 mm 1 mps 626 mmHg 92%
    01:00 +1°C° 0.2 mm 1 mps 626 mmHg 93%
    02:00 -2°C° 0.2 mm 2 mps 626 mmHg 94%
    03:00 -3°C° 0 mm 2 mps 626 mmHg 95%
    04:00 -3°C° 0 mm 2 mps 625 mmHg 95%
    05:00 -4°C° 0 mm 2 mps 625 mmHg 95%
    06:00 -3°C° 0.1 mm 2 mps 626 mmHg 89%
    07:00 -2°C° 0.1 mm 3 mps 627 mmHg 83%
    08:00 -1°C° 0.1 mm 3 mps 627 mmHg 77%
    09:00 -1°C° 0.2 mm 4 mps 628 mmHg 70%
    10:00 0°C° 0.2 mm 4 mps 629 mmHg 62%
    11:00 +1°C° 0.2 mm 5 mps 629 mmHg 54%
    12:00 +2°C° 0.1 mm 5 mps 629 mmHg 53%
    13:00 +2°C° 0.1 mm 5 mps 629 mmHg 52%
    14:00 +3°C° 0.1 mm 5 mps 629 mmHg 51%
    15:00 +3°C° 0.1 mm 4 mps 629 mmHg 52%
    16:00 +3°C° 0.1 mm 4 mps 629 mmHg 53%
    17:00 +3°C° 0.1 mm 3 mps 629 mmHg 54%
    18:00 +1°C° 0 mm 3 mps 628 mmHg 64%
    19:00 -1°C° 0 mm 2 mps 627 mmHg 74%
    20:00 -1°C° 0 mm 1 mps 627 mmHg 84%
    21:00 -2°C° 0 mm 1 mps 627 mmHg 84%
    22:00 -2°C° 0 mm 1 mps 627 mmHg 84%
    23:00 -3°C° 0 mm 1 mps 627 mmHg 84%

    Day after tomorrow, 21 April, Sunday

    Time Temperature Precipitation Wind Pressure Humidity
    00:00 -3°C° 0 mm 1 mps 627 mmHg 81%
    01:00 -3°C° 0 mm 1 mps 627 mmHg 79%
    02:00 -3°C° 0 mm 1 mps 626 mmHg 76%
    03:00 -3°C° 0 mm 1 mps 626 mmHg 74%
    04:00 -3°C° 0 mm 1 mps 626 mmHg 72%
    05:00 -3°C° 0 mm 1 mps 626 mmHg 70%
    06:00 -1°C° 0 mm 1 mps 627 mmHg 62%
    07:00 0°C° 0 mm 0 mps 628 mmHg 55%
    08:00 +3°C° 0 mm 0 mps 629 mmHg 48%
    09:00 +5°C° 0 mm 1 mps 629 mmHg 47%
    10:00 +6°C° 0 mm 1 mps 629 mmHg 46%
    11:00 +7°C° 0 mm 1 mps 629 mmHg 45%
    12:00 +7°C° 0.2 mm 1 mps 629 mmHg 49%
    13:00 +6°C° 0.2 mm 1 mps 628 mmHg 54%
    14:00 +6°C° 0.2 mm 1 mps 628 mmHg 59%
    15:00 +6°C° 0.5 mm 1 mps 628 mmHg 62%
    16:00 +5°C° 0.5 mm 1 mps 627 mmHg 66%
    17:00 +5°C° 0.5 mm 1 mps 627 mmHg 70%
    18:00 +3°C° 0.1 mm 1 mps 626 mmHg 77%
    19:00 +1°C° 0.1 mm 0 mps 626 mmHg 84%
    20:00 -1°C° 0.1 mm 0 mps 625 mmHg 90%
    21:00 -1°C° 0 mm 0 mps 625 mmHg 91%
    22:00 -1°C° 0 mm 1 mps 625 mmHg 91%
    23:00 -1°C° 0 mm 1 mps 625 mmHg 92%

    22 April, Monday

    Time Temperature Precipitation Wind Pressure Humidity
    00:00 -1°C° 0 mm 1 mps 625 mmHg 92%
    01:00 -1°C° 0 mm 1 mps 625 mmHg 91%
    02:00 -1°C° 0 mm 1 mps 625 mmHg 91%
    03:00 -2°C° 0 mm 1 mps 625 mmHg 91%
    04:00 -2°C° 0 mm 1 mps 625 mmHg 91%
    05:00 -2°C° 0 mm 1 mps 625 mmHg 91%
    06:00 0°C° 0 mm 1 mps 626 mmHg 85%
    07:00 +2°C° 0 mm 1 mps 627 mmHg 80%
    08:00 +4°C° 0 mm 0 mps 628 mmHg 74%
    09:00 +5°C° 0.1 mm 1 mps 628 mmHg 75%
    10:00 +5°C° 0.1 mm 1 mps 628 mmHg 77%
    11:00 +5°C° 0.1 mm 1 mps 628 mmHg 78%
    12:00 +5°C° 0.1 mm 1 mps 628 mmHg 80%
    13:00 +5°C° 0.1 mm 1 mps 627 mmHg 82%
    14:00 +4°C° 0.1 mm 2 mps 627 mmHg 85%
    15:00 +5°C° 0.1 mm 1 mps 627 mmHg 83%
    16:00 +5°C° 0.1 mm 1 mps 627 mmHg 82%
    17:00 +6°C° 0.1 mm 1 mps 627 mmHg 81%
    18:00 +5°C° 0 mm 1 mps 627 mmHg 86%
    19:00 +4°C° 0 mm 1 mps 627 mmHg 91%
    20:00 +3°C° 0 mm 1 mps 626 mmHg 96%
    21:00 +2°C° 0 mm 1 mps 627 mmHg 96%
    22:00 +2°C° 0 mm 1 mps 627 mmHg 96%
    23:00 +2°C° 0 mm 1 mps 627 mmHg 96%

    23 April, Tuesday

    Time Temperature Precipitation Wind Pressure Humidity
    00:00 +2°C° 0 mm 1 mps 627 mmHg 96%
    01:00 +1°C° 0 mm 1 mps 627 mmHg 96%
    02:00 +1°C° 0 mm 1 mps 627 mmHg 96%
    03:00 +1°C° 0.2 mm 1 mps 627 mmHg 96%
    04:00 +1°C° 0.2 mm 1 mps 627 mmHg 95%
    05:00 +1°C° 0.2 mm 1 mps 627 mmHg 95%
    06:00 +2°C° 0.1 mm 1 mps 627 mmHg 90%
    07:00 +3°C° 0.1 mm 1 mps 628 mmHg 85%
    08:00 +4°C° 0.1 mm 1 mps 628 mmHg 81%
    09:00 +5°C° 0 mm 2 mps 629 mmHg 73%
    10:00 +7°C° 0 mm 2 mps 630 mmHg 65%
    11:00 +8°C° 0 mm 3 mps 630 mmHg 57%
    12:00 +9°C° 0 mm 3 mps 630 mmHg 55%
    13:00 +9°C° 0 mm 3 mps 630 mmHg 52%
    14:00 +10°C° 0 mm 3 mps 630 mmHg 50%
    15:00 +9°C° 0 mm 3 mps 629 mmHg 53%
    16:00 +8°C° 0 mm 3 mps 629 mmHg 56%
    17:00 +7°C° 0 mm 2 mps 628 mmHg 60%
    18:00 +6°C° 0 mm 2 mps 628 mmHg 68%
    19:00 +4°C° 0 mm 2 mps 627 mmHg 76%
    20:00 +3°C° 0 mm 1 mps 627 mmHg 84%
    21:00 +3°C° 0.6 mm 1 mps 627 mmHg 86%
    22:00 +3°C° 0.6 mm 1 mps 627 mmHg 88%
    23:00 +3°C° 0.6 mm 1 mps 627 mmHg 90%

    24 April, Wednesday

    Time Temperature Precipitation Wind Pressure Humidity
    00:00 +2°C° 0.1 mm 1 mps 627 mmHg 90%
    01:00 +2°C° 0.1 mm 1 mps 626 mmHg 89%
    02:00 +1°C° 0.1 mm 1 mps 626 mmHg 89%
    03:00 +1°C° 0 mm 1 mps 626 mmHg 87%
    04:00 +1°C° 0 mm 1 mps 626 mmHg 84%
    05:00 +1°C° 0 mm 1 mps 626 mmHg 82%
    06:00 +3°C° 0 mm 1 mps 627 mmHg 77%
    07:00 +4°C° 0 mm 0 mps 628 mmHg 72%
    08:00 +6°C° 0 mm 0 mps 629 mmHg 68%
    09:00 +8°C° 0 mm 0 mps 630 mmHg 62%
    10:00 +12°C° 0 mm 1 mps 631 mmHg 57%
    11:00 +14°C° 0 mm 1 mps 632 mmHg 52%
    12:00 +14°C° 0 mm 1 mps 631 mmHg 54%
    13:00 +13°C° 0 mm 2 mps 631 mmHg 56%
    14:00 +13°C° 0 mm 2 mps 631 mmHg 58%
    15:00 +12°C° 0 mm 2 mps 630 mmHg 64%
    16:00 +10°C° 0 mm 2 mps 630 mmHg 69%
    17:00 +10°C° 0 mm 1 mps 629 mmHg 74%
    18:00 +9°C° 0 mm 1 mps 629 mmHg 81%
    19:00 +7°C° 0 mm 1 mps 629 mmHg 88%
    20:00 +6°C° 0 mm 1 mps 628 mmHg 95%
    21:00 +5°C° 0 mm 1 mps 628 mmHg 95%
    22:00 +5°C° 0 mm 1 mps 628 mmHg 95%
    23:00 +3°C° 0 mm 0 mps 628 mmHg 96%
    Show more